Dewpoint
50 50 52 52 53 53 55 56 59 58 57 56 55 55 54 54 54 53 53 54 54 53 52 53 53 52 48 40 33 45 49 53 41 32 27 24 28 28 22 17 14 12 15 30 42 42 41
50 50 51 51 52 52 54 54 55 59 57 56 55 55 54 54 54 53 53 53 54 53 52 53 53 51 48 19 35 49 43 40 36 32 25 27 28 27 22 20 21 24 25 38 39 39 39
49 50 50 51 52 52 53 53 53 56 58 57 56 55 54 54 53 53 52 53 53 53 53 53 52 49 46 15 37 37 40 34 34 26 20 27 29 27 25 22 26 26 29 37 38 38 31
50 50 50 50 51 52 51 51 54 54 57 58 57 55 54 54 53 52 52 53 53 53 53 53 51 48 33 41 44 41 36 33 31 27 24 28 28 28 24 26 25 22 28 32 35 35 31
47 49 49 50 50 51 51 52 53 53 54 56 57 56 55 53 52 52 52 52 52 53 53 52 49 48 31 44 40 38 35 30 31 28 27 27 29 27 27 25 23 20 15 19 30 32 30
46 47 48 49 49 50 50 52 52 53 54 56 57 56 55 53 52 52 52 52 52 52 50 49 47 40 39 30 36 31 30 30 30 30 29 30 28 26 26 25 21 18 18 17 18 30 32
47 46 47 46 49 49 50 51 53 53 53 55 56 56 55 53 52 52 51 47 45 47 46 38 30 28 32 35 33 31 27 27 30 34 27 35 29 27 28 26 24 25 22 21 24 26 29
48 48 45 46 48 49 49 50 52 53 52 53 56 56 55 53 52 52 50 42 43 41 39 44 43 41 41 39 32 30 25 22 28 29 35 31 28 31 32 27 26 25 24 23 22 21 28
47 47 47 46 48 49 48 48 51 51 51 52 55 56 54 52 52 50 48 44 44 42 40 42 44 43 40 40 30 29 24 28 30 31 30 26 28 31 30 27 24 24 24 23 21 20 16
46 46 47 46 45 48 49 48 48 51 51 51 53 56 53 52 46 47 47 48 49 45 37 32 36 38 33 24 24 29 26 30 30 28 31 29 31 31 29 28 27 22 24 25 21 22 17
45 44 45 46 45 44 48 47 48 49 51 51 52 55 52 50 48 46 48 48 47 48 13 30 37 35 27 25 24 23 26 24 27 30 30 24 29 28 27 27 27 24 24 24 23 23 21
46 45 44 46 47 44 45 47 47 46 50 51 51 54 52 51 50 48 48 50 52 39 20 29 31 24 22 24 25 22 21 22 29 30 30 27 34 31 27 28 27 27 26 27 30 26 18
44 46 44 44 45 46 45 43 47 46 48 50 51 54 51 50 42 51 51 49 39 32 30 26 24 23 22 23 24 22 20 18 17 23 25 26 28 31 31 27 27 26 24 20 18 18 17
41 43 46 42 43 45 46 44 45 46 47 49 51 53 52 49 49 50 51 45 33 31 30 29 25 23 21 22 22 21 18 17 20 21 24 22 21 27 31 29 27 27 24 19 15 16 20
39 41 44 43 43 43 45 46 42 45 47 48 51 51 51 51 50 49 48 37 30 34 26 23 22 22 21 22 21 21 19 17 18 19 17 23 26 33 32 32 29 25 22 26 26 30 24
40 42 46 43 42 42 44 45 44 45 46 48 47 48 48 50 49 46 44 35 36 37 34 30 22 22 20 20 20 20 18 18 18 19 21 26 25 29 31 31 29 26 24 21 24 15 18
41 41 45 43 41 40 42 43 46 42 46 48 46 42 48 51 49 42 36 35 37 35 38 34 29 22 20 19 19 18 18 18 19 21 26 31 24 24 31 25 22 24 21 21 23 22 17
40 41 43 43 42 41 42 43 42 43 45 45 44 37 49 51 40 38 37 37 37 35 37 37 36 30 22 20 18 18 17 18 30 30 25 30 28 22 22 28 31 29 25 24 18 16 23
40 41 42 42 41 40 41 42 41 44 45 43 40 40 49 47 35 32 36 37 36 34 36 36 33 32 26 22 22 24 25 34 32 28 26 31 28 23 23 25 29 27 24 26 28 26 20
39 40 41 42 41 40 41 41 41 44 44 43 39 36 44 45 39 31 32 34 36 35 36 39 38 37 32 24 26 24 29 32 35 31 33 29 26 22 17 19 24 24 25 27 23 20 21
40 41 41 40 39 41 41 41 41 44 46 43 40 34 38 36 38 32 31 33 34 33 37 37 34 35 35 25 23 29 33 33 34 31 32 27 23 22 21 23 25 24 24 25 22 22 19
41 42 40 39 39 40 41 42 43 43 46 41 37 38 40 39 38 36 31 31 30 30 30 29 34 34 32 26 23 27 30 31 26 32 28 31 21 24 21 27 24 23 23 23 23 22 24
41 41 39 39 39 40 39 42 43 44 46 40 41 43 41 35 38 37 35 31 29 29 31 31 34 33 31 29 30 29 32 31 30 27 29 29 27 25 19 24 22 20 21 21 22 24 23
40 39 39 38 38 37 41 43 43 43 46 43 40 42 41 35 39 38 35 33 31 30 27 33 33 34 34 39 37 36 37 39 37 36 35 31 30 28 23 22 20 23 23 22 21 21 22
40 39 37 37 37 38 41 42 43 43 43 44 45 41 43 34 37 40 37 34 31 32 36 30 36 35 40 39 34 32 32 32 33 32 34 35 32 28 24 21 23 22 17 18 18 23 25
38 38 37 37 38 40 40 41 41 42 42 43 43 47 44 41 37 38 39 35 32 35 34 38 43 45 42 38 31 27 28 29 28 26 33 34 33 29 29 21 19 21 22 24 25 23 29
38 38 38 39 40 40 40 41 41 42 41 43 42 46 43 41 44 40 37 36 34 34 38 43 41 41 42 33 30 28 26 29 26 26 25 29 30 28 26 22 17 24 24 26 14 17 30
39 39 39 40 40 40 40 41 42 42 42 43 42 47 42 40 44 47 38 34 34 38 38 42 41 42 40 31 30 31 25 29 29 30 27 25 28 28 28 20 18 30 25 20 26 33 33
39 40 41 42 41 41 41 41 42 42 42 44 40 46 47 42 44 46 47 48 44 40 43 45 39 39 41 35 37 36 34 32 31 29 35 26 25 25 28 25 32 32 31 34 36 36 39
Wind_Speed
14 13 10 9 10 10 11 9 14 15 14 13 12 11 12 12 12 13 13 15 15 15 16 15 15 16 6 4 9 5 6 11 14 7 5 2 4 1 5 7 6 9 16 1 17 12 9
16 15 13 12 12 12 13 10 10 14 15 14 13 12 13 12 13 14 14 14 15 15 14 14 12 15 3 5 4 5 7 10 11 9 5 7 7 2 10 9 7 10 10 18 16 13 5
20 18 16 14 13 13 13 10 11 14 16 15 13 13 13 13 13 14 14 15 15 13 13 12 8 5 4 16 1 1 3 5 8 9 3 9 11 7 4 13 8 8 8 11 15 6 8
22 20 18 17 14 13 13 13 12 13 14 16 14 13 13 13 13 14 15 15 15 13 11 8 6 3 9 7 8 14 8 10 8 9 9 12 8 8 3 7 11 5 13 9 12 13 5
24 23 21 19 16 15 14 14 14 14 14 16 15 13 13 12 13 14 17 17 14 12 7 7 2 2 11 18 7 11 13 9 10 13 8 12 4 3 6 4 8 4 3 8 11 10 15
27 26 24 21 19 17 16 15 15 15 14 14 15 14 12 11 11 13 17 19 8 7 2 4 7 7 8 2 4 6 11 9 4 11 3 5 4 5 5 4 5 5 2 1 1 10 6
28 28 25 25 22 20 19 17 14 13 12 13 14 13 11 9 9 10 9 5 3 1 3 10 4 6 11 6 12 8 6 5 5 9 2 3 4 6 8 4 5 5 1 5 16 15 14
30 27 29 26 24 23 21 18 15 13 11 11 13 12 11 8 6 4 2 3 4 2 12 19 25 20 21 4 7 11 5 6 5 7 3 1 2 4 7 9 8 2 5 20 16 9 16
31 30 27 27 25 23 23 21 17 15 13 11 13 12 10 5 2 1 4 9 8 14 6 11 12 10 10 11 9 13 7 6 7 8 9 7 7 2 5 7 7 8 8 18 14 2 5
33 31 30 29 28 25 23 23 20 16 14 13 12 12 10 7 2 2 6 5 9 8 4 8 8 8 8 7 7 13 6 7 3 11 8 5 4 4 4 8 4 10 19 26 13 8 7
39 36 31 29 31 28 23 24 21 18 16 15 13 13 14 13 1 4 1 16 4 2 4 4 8 5 13 11 2 7 10 6 13 12 6 7 5 5 2 12 6 10 5 11 9 8 2
41 39 35 31 30 29 26 23 23 21 17 16 14 14 15 4 3 10 19 13 4 2 9 4 10 12 12 15 6 1 5 7 8 7 0 4 1 5 7 10 6 7 6 5 4 1 4
38 37 39 35 29 28 28 27 23 23 19 18 15 14 16 11 4 6 8 1 4 7 7 8 10 15 19 14 11 8 9 10 9 5 6 1 5 2 1 5 8 1 2 4 3 2 6
40 40 40 37 32 28 29 28 26 23 20 18 15 13 13 10 3 12 5 4 11 10 13 4 12 19 18 13 15 10 8 15 7 7 6 10 4 4 4 1 4 5 4 4 4 5 6
42 43 44 39 34 28 23 27 28 26 23 18 13 9 5 11 9 4 2 20 12 10 6 5 10 14 15 16 10 15 13 17 12 14 12 5 5 5 5 3 2 2 7 5 6 2 2
41 37 43 39 36 32 26 20 27 24 24 20 11 8 8 10 17 7 11 22 10 15 8 5 8 12 19 20 13 13 15 11 15 18 13 10 3 4 4 5 9 10 4 2 1 3 3
42 42 40 38 35 33 30 27 27 28 25 23 13 9 15 19 14 7 26 21 15 31 7 4 4 7 18 17 18 13 15 15 17 12 13 11 5 6 4 12 18 2 4 3 3 4 3
44 42 42 38 36 31 29 27 26 32 29 26 11 15 21 23 14 11 30 21 13 29 7 8 8 9 12 21 16 20 20 12 6 17 14 12 7 8 11 8 4 1 11 6 7 6 1
45 42 44 43 36 35 33 30 28 33 39 23 12 11 18 24 24 29 12 27 25 15 10 7 6 10 6 6 8 10 4 2 4 13 22 13 5 4 2 5 4 9 9 8 5 4 10
45 44 45 41 40 34 33 32 31 33 41 24 10 18 11 19 15 32 28 22 29 19 28 13 15 12 16 4 8 9 7 4 0 9 4 13 7 11 19 8 4 5 4 4 7 7 7
45 44 48 42 36 35 34 33 35 33 42 28 11 16 15 28 34 26 30 21 28 22 18 14 15 25 21 9 7 5 7 5 2 8 4 5 9 7 7 4 3 5 8 4 4 5 10
46 44 40 39 38 36 31 35 35 38 42 27 14 10 16 7 26 27 30 34 37 26 19 25 20 18 13 19 10 8 11 7 8 3 6 2 6 4 7 3 3 4 6 7 6 3 9
47 46 43 39 35 32 33 29 40 30 33 12 14 5 8 21 29 30 37 33 35 28 19 35 18 22 18 18 9 11 15 18 15 12 10 9 9 6 9 2 3 9 11 13 11 4 6
47 44 41 38 36 33 29 36 37 34 24 3 15 2 6 21 27 33 30 27 38 30 32 20 29 24 10 16 15 18 21 16 18 11 9 9 9 4 5 3 9 8 5 6 16 11 16
44 42 39 37 36 34 33 31 33 34 30 19 2 8 4 18 24 17 33 31 28 26 27 33 16 11 22 4 6 6 4 4 5 8 3 9 8 5 6 9 5 7 8 8 8 4 6
38 37 37 36 38 38 36 33 36 33 29 24 20 3 5 4 18 23 22 30 30 21 27 16 2 2 4 5 5 8 9 7 7 5 8 10 6 8 5 5 9 8 6 8 11 9 8
36 36 37 38 36 35 34 34 35 34 32 19 13 14 2 4 5 27 29 29 20 17 14 5 9 6 3 9 7 6 7 12 13 14 8 5 3 13 9 8 8 13 7 5 11 7 12
32 33 35 34 33 34 34 35 34 34 32 23 17 12 11 5 10 9 11 20 23 28 22 9 9 1 3 8 10 6 5 8 7 11 11 14 12 7 4 5 13 9 7 8 10 9 16
27 27 29 30 32 33 34 34 33 29 31 30 9 9 5 4 8 14 21 21 18 20 14 6 7 10 7 6 3 6 4 5 8 10 5 7 10 11 14 8 3 1 9 13 19 20 10
Wind_Direction
259 261 269 274 273 276 277 281 256 255 255 258 264 272 279 288 297 300 310 312 307 312 312 318 327 326 333 338 257 298 71 122 154 154 200 211 263 286 283 291 315 242 285 358 119 142 174
253 253 256 260 266 267 267 267 281 260 255 254 257 267 276 286 295 300 306 310 308 308 310 317 329 327 299 294 254 145 115 149 172 177 195 195 250 274 292 309 287 308 274 122 121 156 133
258 253 249 248 252 264 267 261 273 275 257 254 256 263 275 285 295 300 305 310 309 306 305 311 325 313 270 245 109 41 228 245 196 176 211 225 248 274 312 325 326 293 83 68 124 174 140
259 255 253 250 248 252 264 269 261 266 260 255 253 259 270 284 295 300 305 308 306 303 301 297 312 296 258 254 281 281 244 235 221 227 219 261 276 259 297 311 340 26 135 138 206 195 165
256 256 251 250 248 246 253 261 261 259 258 255 250 255 264 279 294 304 308 305 297 297 274 278 299 241 271 313 266 265 205 231 218 231 255 287 326 326 342 358 337 12 185 158 175 230 174
252 253 253 249 246 247 246 253 260 256 260 256 249 248 258 274 291 306 312 297 276 311 213 225 266 305 271 232 258 245 237 211 212 215 241 12 22 339 341 16 280 297 294 36 100 219 226
252 250 251 251 247 243 244 246 253 250 253 249 244 246 252 268 292 318 342 352 339 355 201 216 222 262 289 308 314 236 234 172 137 64 188 23 38 320 346 296 241 303 281 313 286 207 190
248 245 248 248 247 239 240 244 243 244 250 255 244 244 243 256 286 308 344 269 241 153 296 242 246 245 260 290 310 296 151 181 129 156 163 94 93 248 284 302 24 15 16 292 305 265 187
241 244 241 244 247 244 234 238 240 239 247 251 250 234 228 231 277 261 235 244 286 18 288 284 209 218 231 169 222 258 166 148 144 149 197 202 208 231 330 277 337 290 222 271 277 210 212
237 240 239 237 240 243 237 233 237 236 238 243 243 230 202 155 259 225 257 295 304 156 297 269 195 230 189 193 261 237 197 142 147 181 181 229 234 125 316 306 238 240 248 255 291 351 307
235 228 237 238 235 238 240 234 228 233 231 233 235 225 188 179 271 229 285 334 13 100 281 210 165 168 164 174 217 208 191 170 178 178 160 243 220 188 235 269 273 262 294 290 290 304 159
246 228 222 232 230 232 234 235 225 225 226 228 225 220 180 204 262 258 303 316 129 133 245 239 157 176 162 209 234 310 189 185 154 152 266 216 269 182 202 274 266 310 348 33 57 31 224
241 241 221 216 231 228 224 231 227 220 219 224 224 209 175 163 202 341 316 3 149 204 300 195 177 166 183 196 235 223 251 202 178 122 203 265 252 256 189 339 324 115 15 306 328 311 246
238 236 232 215 211 226 224 222 224 221 218 216 221 198 211 206 59 3 353 157 216 220 242 317 175 174 185 192 225 209 196 193 221 164 160 197 214 202 140 229 259 311 196 194 242 252 290
232 232 225 213 205 212 222 220 216 215 209 205 205 205 204 226 219 21 237 210 202 227 202 247 165 168 201 206 206 215 197 207 209 193 202 158 255 306 205 151 359 350 218 214 121 32 312
225 223 217 204 204 199 207 228 215 212 202 192 192 201 201 165 151 155 221 218 212 232 341 359 203 185 192 206 193 200 214 204 213 213 189 193 154 263 293 207 218 210 252 208 11 216 244
218 216 221 200 201 204 201 209 219 206 198 182 191 203 170 147 141 175 217 217 223 252 312 298 267 228 198 201 211 199 207 226 218 221 167 156 173 211 284 217 228 238 231 198 154 161 221
213 212 206 198 200 195 196 205 215 210 194 183 200 197 164 149 171 215 220 204 241 251 250 275 296 274 217 201 206 216 206 211 202 159 175 182 146 189 220 293 58 266 266 181 213 224 131
207 208 204 198 194 198 198 200 209 215 191 179 195 189 170 162 195 213 206 216 227 240 210 225 256 234 226 187 187 169 183 324 185 164 164 172 156 170 341 337 277 235 211 204 140 122 210
203 203 197 189 191 194 201 198 206 214 191 181 195 174 173 202 216 201 199 206 215 239 246 261 272 295 277 224 211 187 165 164 281 137 145 156 150 194 207 195 206 200 248 219 187 202 198
197 198 187 184 187 193 198 201 199 215 194 184 210 196 185 193 208 205 194 198 210 226 217 214 248 242 255 252 193 165 134 155 103 131 132 151 186 171 179 190 213 239 255 215 199 231 210
186 179 177 180 187 192 195 198 193 204 192 195 202 189 168 198 194 197 195 205 206 218 228 222 234 254 250 222 215 186 154 174 171 160 146 125 214 178 219 88 113 222 270 286 243 214 239
179 176 177 180 183 188 194 201 198 196 181 191 224 278 190 203 182 188 208 197 209 210 227 233 203 239 257 249 219 220 178 172 162 172 173 166 161 167 229 329 358 272 238 240 257 238 195
174 173 175 178 184 188 187 198 200 198 208 177 206 267 248 191 186 202 192 198 209 213 211 221 223 240 258 132 104 71 60 95 113 105 150 158 148 155 198 114 246 245 286 156 101 72 106
169 171 175 179 181 184 184 196 188 204 202 212 258 202 254 208 197 192 197 197 214 217 219 227 240 231 168 99 100 95 44 81 70 43 108 159 144 142 185 204 292 283 153 163 134 101 114
171 176 180 181 184 180 186 194 192 198 197 211 223 342 301 227 211 191 193 205 203 207 218 231 160 326 163 108 115 160 177 159 167 132 53 86 105 179 155 200 224 249 192 131 116 154 160
171 175 178 183 182 179 187 191 192 194 202 207 218 214 296 302 283 186 201 205 205 201 203 170 167 174 59 161 163 156 184 171 164 176 173 139 85 193 183 216 271 248 212 116 189 190 152
167 173 179 180 181 184 189 191 191 197 195 196 208 181 204 268 288 303 197 186 204 196 196 167 138 124 93 156 176 161 154 184 151 169 173 177 170 179 126 202 254 199 148 191 152 125 132
162 173 180 182 184 185 187 189 194 189 190 193 204 179 178 273 287 319 286 274 252 193 164 162 189 144 156 138 170 128 157 158 141 188 153 186 183 183 186 215 293 318 140 123 132 131 127